DateTimeUTC,F1_A11,F1_S11,BsB_S11,BsG_S11,BsR_S11,BbsB_S11,BbsG_S11,BbsR_S11,BaB_A11,BaG_A11,BaR_A11,Tu_S11,T_S11,Uu_S11,U_S11,P_S11,T1_A11
2021-03-31T05:00:00Z,00000200,21000000,,,,,,,0000.03,-000.04,0000.25,16.3,23.4,00.3,00.2,0648.5,30.9
2021-03-31T05:01:00Z,00000200,21000000,,,,,,,-000.11,-000.09,-000.15,16.3,23.4,00.3,00.2,0648.5,30.9
2021-03-31T05:02:00Z,00000200,21000000,,,,,,,-000.03,-000.05,0000.11,16.3,23.4,00.3,00.2,0648.5,30.9
2021-03-31T05:03:00Z,00000200,61000000,,,,,,,0000.25,0000.41,-000.06,16.3,23.5,00.3,00.2,0648.5,30.9
2021-03-31T05:04:00Z,00000200,41000000,0000.46,0000.39,0000.20,0000.13,0000.28,-000.17,0000.10,-000.02,0000.18,16.6,23.3,00.5,00.3,0649.4,30.9
2021-03-31T05:05:00Z,00000200,01000000,0001.05,0000.52,0000.44,0000.42,0000.33,0000.05,0000.53,0000.92,-000.03,16.6,23.3,00.5,00.3,0649.4,30.9
2021-03-31T05:06:00Z,00000200,01000000,0000.81,0000.58,0000.23,-000.00,0000.20,0000.09,0000.02,0000.11,0000.39,16.6,23.3,00.7,00.4,0649.5,30.9
2021-03-31T05:07:00Z,00000200,01000000,0001.07,0000.38,0000.20,0000.07,0000.08,-000.06,-000.08,-000.18,-000.30,16.5,23.2,00.6,00.4,0649.5,30.9
2021-03-31T05:08:00Z,00000200,01000000,0000.73,0000.55,0000.22,0000.72,0000.23,0000.12,0000.51,0000.36,0000.57,16.5,23.2,00.6,00.4,0649.5,30.9
2021-03-31T05:09:00Z,00000200,01000000,0000.83,0000.71,0000.43,0000.44,0000.36,-000.02,0000.20,0000.10,0000.17,16.5,23.2,00.6,00.4,0649.5,30.9
2021-03-31T05:10:00Z,00000200,01000000,0000.82,0000.47,0000.14,-000.07,0000.06,-000.18,0000.51,0000.18,0000.38,16.5,23.2,00.6,00.4,0649.6,30.8
2021-03-31T05:11:00Z,00000200,01000000,0001.33,0000.21,0000.32,-000.07,0000.12,-000.38,0000.27,0000.25,0000.58,16.5,23.2,00.5,00.3,0649.5,30.8
2021-03-31T05:12:00Z,00000200,01000000,0001.24,0000.69,0000.25,0000.24,0000.03,-000.07,0000.29,0000.44,-000.03,16.5,23.2,00.6,00.4,0649.6,30.8
2021-03-31T05:13:00Z,00000200,01000000,0000.67,0000.46,0000.37,0000.51,0000.17,0000.09,0000.63,0000.54,0000.50,16.6,23.2,00.7,00.5,0649.6,30.9
2021-03-31T05:14:00Z,00000200,01000000,0000.86,0000.62,0000.55,-000.14,0000.17,-000.04,0000.13,0000.20,-000.06,16.6,23.2,00.6,00.4,0649.6,30.9
2021-03-31T05:15:00Z,00000200,01000000,0001.10,0000.38,0000.30,0000.43,0000.14,0000.01,0000.54,0000.58,0000.50,16.6,23.2,00.7,00.4,0649.5,30.9
2021-03-31T05:16:00Z,00000200,01000000,0000.72,0000.42,0000.21,-000.19,0000.26,0000.10,0000.08,-000.29,-000.20,16.6,23.2,00.7,00.4,0649.5,30.9
2021-03-31T05:17:00Z,00000200,01000000,0000.80,0000.37,0000.24,-000.26,0000.16,0000.04,-000.07,0000.47,0000.37,16.5,23.2,00.7,00.5,0649.4,30.9
2021-03-31T05:18:00Z,00000200,01000000,0000.62,0000.60,0000.26,0000.52,0000.27,0000.07,0000.23,-000.10,-000.05,16.5,23.2,00.6,00.4,0649.5,30.9
2021-03-31T05:19:00Z,00000200,01000000,0000.89,0000.66,0000.39,0000.12,-000.02,0000.01,0000.66,0000.70,0000.43,16.5,23.1,00.7,00.5,0649.7,30.8
2021-03-31T05:20:00Z,00000200,01000000,0000.52,0000.31,0000.27,0000.42,0000.23,-000.03,0000.13,-000.16,0000.32,16.4,23.1,00.7,00.5,0649.6,30.8
2021-03-31T05:21:00Z,00000200,01000000,0000.97,0000.38,0000.24,0000.33,0000.26,-000.21,0000.06,0000.58,0000.09,16.4,23.1,00.7,00.5,0649.5,30.8
2021-03-31T05:22:00Z,00000200,01000000,0001.69,0000.49,0000.24,0000.25,0000.24,-000.07,0000.16,-000.09,-000.01,16.4,23.1,00.7,00.4,0649.5,30.8
2021-03-31T05:23:00Z,00000200,01000000,0000.87,0000.35,0000.29,-000.15,0000.29,0000.03,0000.47,0000.47,0000.44,16.4,23.1,00.8,00.5,0649.5,30.8
2021-03-31T05:24:00Z,00000200,01000000,0001.12,0000.70,0000.30,0000.50,0000.07,0000.09,0000.66,0000.49,0000.73,16.3,23.1,00.8,00.5,0649.5,30.8
2021-03-31T05:25:00Z,00000200,01000000,0000.46,0000.64,0000.33,0000.04,0000.20,0000.06,0000.64,0000.31,0000.34,16.3,23.0,00.9,00.6,0649.6,30.8
2021-03-31T05:26:00Z,00000200,01000000,0001.11,0000.39,0000.16,0000.00,-000.03,-000.10,0000.61,0000.84,0000.37,16.3,23.0,00.8,00.6,0649.5,30.8
2021-03-31T05:27:00Z,00000200,01000000,0000.71,0000.40,0000.09,0000.03,0000.20,0000.18,0000.23,0000.21,0000.18,16.4,23.0,00.9,00.6,0649.6,30.8
2021-03-31T05:28:00Z,00000200,01000000,0001.64,0000.42,0000.41,-000.01,0000.00,0000.20,0000.26,-000.22,0000.15,16.4,23.0,00.9,00.6,0649.6,30.8
2021-03-31T05:29:00Z,00000200,01000000,0000.60,0000.36,0000.20,0000.28,0000.05,-000.25,0000.30,0000.54,0000.27,16.5,23.1,00.9,00.6,0649.7,30.8
2021-03-31T05:30:00Z,00000200,01000000,0000.85,0000.44,0000.14,0000.48,0000.36,0000.10,0000.32,0000.63,0000.25,16.5,23.1,00.9,00.6,0649.6,30.8
2021-03-31T05:31:00Z,00000200,01000000,0000.69,0000.30,0000.29,-000.05,0000.17,-000.08,0000.37,0000.19,0000.22,16.6,23.1,00.9,00.6,0649.7,30.9
2021-03-31T05:32:00Z,00000200,01000000,0000.98,0000.52,0000.37,0000.06,0000.14,-000.07,-000.12,-000.18,-000.23,16.6,23.2,00.9,00.6,0649.7,30.9
2021-03-31T05:33:00Z,00000200,01000000,0000.65,0000.39,0000.42,0000.22,0000.09,0000.05,0000.13,0000.19,0000.48,16.6,23.2,00.9,00.6,0649.6,30.9
2021-03-31T05:34:00Z,00000200,01000000,0001.00,0000.26,0000.14,0000.53,0000.22,0000.06,0000.61,0000.86,0000.10,16.7,23.2,00.8,00.6,0649.6,30.9
2021-03-31T05:35:00Z,00000200,01000000,0000.97,0000.37,0000.30,0000.28,0000.36,0000.15,0000.61,-000.06,0000.60,16.6,23.2,01.0,00.7,0649.5,30.9
2021-03-31T05:36:00Z,00000200,01000000,0001.21,0000.28,0000.11,0000.06,0000.17,-000.03,0000.24,0000.73,0000.34,16.6,23.2,01.0,00.7,0649.7,30.9
2021-03-31T05:37:00Z,00000200,01000000,0000.99,0000.50,0000.28,0000.01,0000.21,0000.30,-000.03,-000.06,-000.17,16.6,23.2,01.0,00.7,0649.7,30.9
2021-03-31T05:38:00Z,00000200,01000000,0000.87,0000.44,0000.32,0000.10,0000.12,0000.36,0000.78,0000.73,0000.68,16.5,23.2,01.1,00.7,0649.8,30.9
2021-03-31T05:39:00Z,00000200,01000000,0000.97,0000.56,0000.12,0000.35,0000.13,-000.10,0000.02,-000.27,0000.05,16.5,23.1,01.1,00.7,0649.6,30.9
2021-03-31T05:40:00Z,00000200,01000000,0000.80,0000.46,0000.42,0000.31,0000.04,0000.03,0000.87,0000.91,0000.47,16.5,23.1,01.0,00.7,0649.7,30.9
2021-03-31T05:41:00Z,00000200,01000000,0000.73,0000.50,0000.49,0000.17,0000.37,-000.06,-000.47,-000.27,-000.03,16.5,23.1,01.0,00.7,0649.6,30.9
2021-03-31T05:42:00Z,00000200,01000000,0001.29,0000.38,0000.22,0000.20,0000.36,0000.14,0001.19,0001.45,0000.55,16.5,23.1,01.0,00.7,0649.5,30.9
2021-03-31T05:43:00Z,00000200,01000000,0000.58,0000.41,0000.38,0000.35,0000.36,0000.44,0001.20,0000.66,0000.85,16.5,23.1,01.4,00.9,0649.6,30.9
2021-03-31T05:44:00Z,00000200,01000000,0000.66,0000.26,0000.41,0000.42,0000.14,-000.05,-000.10,0000.17,0000.15,16.6,23.1,01.4,00.9,0649.6,30.9
2021-03-31T05:45:00Z,00000200,01000000,0000.85,0000.70,0000.30,-000.08,0000.31,-000.08,-000.23,-000.32,-000.01,16.5,23.1,01.3,00.9,0649.4,30.8
2021-03-31T05:46:00Z,00000200,01000000,0000.74,0000.50,0000.20,-000.11,0000.07,0000.18,0001.16,0000.75,0000.21,16.5,23.1,01.4,00.9,0649.6,30.8
2021-03-31T05:47:00Z,00000200,01000000,0001.33,0000.38,0000.46,-000.03,0000.22,0000.03,0000.34,0000.60,0000.38,16.5,23.1,01.3,00.9,0649.5,30.8
2021-03-31T05:48:00Z,00000200,01000000,0001.16,0000.19,0000.31,-000.30,0000.28,0000.18,-000.04,0000.23,0000.26,16.4,23.1,01.6,01.0,0649.4,30.8
2021-03-31T05:49:00Z,00000200,01000000,0001.96,0000.80,0000.33,0000.55,0000.44,0000.09,0000.30,0000.04,0000.23,16.4,23.1,01.5,01.0,0649.5,30.8
2021-03-31T05:50:00Z,00000200,01000000,0001.25,0000.35,0000.49,0000.12,0000.12,0000.08,0000.61,0000.74,0000.88,16.4,23.0,01.5,01.0,0649.5,30.8
2021-03-31T05:51:00Z,00000200,01000000,0001.42,0000.48,0000.05,0000.72,0000.10,-000.07,0000.70,0000.03,-000.30,16.4,23.0,01.6,01.0,0649.5,30.8
2021-03-31T05:52:00Z,00000200,01000000,0000.08,0000.43,0000.20,-000.19,0000.39,-000.02,-000.43,0000.02,0000.31,16.3,23.0,01.5,01.0,0649.4,30.8
2021-03-31T05:53:00Z,00000200,01000000,0001.29,0000.40,0000.35,0000.33,0000.21,0000.12,0000.70,0000.63,0000.87,16.3,23.0,01.5,01.0,0649.4,30.8
2021-03-31T05:54:00Z,00000200,01000000,0000.72,0000.38,0000.55,0000.45,0000.27,0000.18,0000.44,-000.30,-000.40,16.3,23.0,01.6,01.0,0649.3,30.8
2021-03-31T05:55:00Z,00000200,01000000,0001.56,0000.71,0000.39,0000.08,0000.17,0000.09,0000.46,0000.88,0001.09,16.3,23.0,01.6,01.1,0649.4,30.8
2021-03-31T05:56:00Z,00000200,01000000,0001.58,0000.52,0000.46,-000.35,0000.29,0000.12,0000.36,0000.37,-000.37,16.3,23.0,01.5,01.0,0649.4,30.8
2021-03-31T05:57:00Z,00000200,41000000,,,,,,,-000.14,-000.14,0000.57,16.3,23.0,01.2,00.8,0649.2,30.8
2021-03-31T05:58:00Z,00000200,61000000,,,,,,,0000.63,0000.63,0000.29,16.1,23.1,01.4,00.9,0648.6,30.8
2021-03-31T05:59:00Z,00000200,21000000,,,,,,,-000.19,-000.68,-000.51,16.1,23.2,01.2,00.8,0648.5,30.8
